Theta_e
280 280 280 279 278 278 278 278 278 279 279 280 279 279 279 279 278 278 277 278 278 278 278 278 278 278 277 278 277 277 277 277 277 277 277 276 277 277 278 278 278 278 278 278 279 279 279 279 279 280 280 280 280 281 282 282 283 283 283 283 282 282 282 281 279 280 282 283 284 285 286 285 285 285 285 285 284 284 286 284 284 284 284 285 285
278 279 279 278 278 278 277 278 278 278 278 277 277 277 277 277 277 277 277 277 277 277 276 277 277 276 276 275 276 276 276 276 276 276 276 276 276 277 277 276 276 277 277 277 278 279 278 278 278 279 280 279 280 280 280 281 281 281 282 282 282 282 282 281 280 280 279 282 282 284 284 285 284 285 285 286 285 284 284 284 284 283 284 284 284
278 279 278 278 277 277 277 277 277 277 277 276 276 276 276 276 276 275 275 274 275 274 274 275 275 275 274 275 275 275 275 275 275 275 275 275 274 275 276 276 276 276 276 276 277 277 277 277 277 278 279 278 278 279 279 279 280 280 281 281 281 282 282 282 281 280 279 280 282 282 283 283 284 284 284 285 285 285 284 284 284 284 284 283 283
277 277 277 276 276 275 275 276 276 276 275 275 275 275 275 274 274 273 273 273 272 273 273 273 273 273 273 273 273 273 273 274 274 274 274 274 274 274 274 275 275 275 275 275 276 276 276 276 276 277 277 277 277 278 278 279 279 279 280 280 281 281 281 282 282 281 280 279 281 281 282 282 283 284 284 284 284 284 284 285 284 283 283 283 283
277 276 275 275 274 274 274 275 275 274 274 274 274 273 272 272 272 271 271 271 271 271 272 272 271 271 271 271 271 271 272 272 271 272 272 273 273 273 273 273 273 274 274 275 276 275 276 276 276 277 277 276 277 277 277 277 278 278 278 279 279 280 280 280 280 281 280 279 280 281 282 282 283 283 284 283 284 284 284 283 283 283 283 283 283
275 275 275 274 274 273 274 274 274 273 273 273 272 272 271 270 270 270 270 270 270 270 270 270 270 270 270 270 270 270 270 270 270 270 271 271 271 272 272 273 273 273 274 274 274 275 275 275 275 276 276 275 276 276 277 277 277 277 277 278 278 279 279 279 279 279 279 279 279 279 280 280 281 282 283 283 282 282 283 283 283 283 283 283 283
274 274 273 273 273 273 273 273 273 272 272 271 271 270 270 269 269 269 269 269 269 268 268 269 269 268 268 269 268 268 268 269 269 269 269 270 270 271 271 272 272 272 273 273 273 273 274 274 274 274 275 275 275 275 276 276 277 276 277 277 278 278 278 278 278 278 278 278 278 279 279 280 280 280 281 282 283 283 282 282 282 284 283 282 283
273 273 272 272 272 272 272 272 271 271 271 270 269 269 268 268 268 268 268 267 267 267 267 267 267 267 267 267 267 267 267 267 268 268 269 270 270 271 271 271 271 271 271 272 272 272 273 273 273 274 274 275 275 275 276 276 277 277 278 278 278 278 278 278 278 278 278 278 278 278 278 278 279 279 280 279 279 281 281 280 280 282 282 283 282
272 271 271 271 271 271 271 271 270 270 269 268 268 267 267 266 266 266 266 265 266 266 266 266 265 265 266 266 266 266 266 266 267 267 269 270 271 271 271 271 271 271 271 271 272 272 272 273 273 273 274 276 277 278 278 279 277 276 277 278 277 277 278 278 278 278 278 278 277 278 278 278 278 278 278 277 277 279 281 281 280 282 282 282 283
271 271 270 270 271 271 270 269 268 268 267 266 266 265 265 264 264 264 264 264 264 264 264 264 264 264 264 264 264 264 265 265 267 270 273 271 271 271 271 271 271 271 271 271 271 271 271 271 272 274 275 275 276 276 277 278 278 278 277 277 277 277 277 277 278 278 278 278 278 278 277 276 277 278 278 278 279 279 279 280 280 281 282 281 282
270 269 270 270 270 269 268 267 266 266 265 265 263 263 264 263 262 262 262 262 262 263 263 263 263 263 263 263 263 263 264 264 268 272 273 274 272 271 271 271 271 271 270 270 269 270 270 271 271 272 272 272 271 274 275 276 277 277 278 279 279 277 276 276 276 277 277 277 278 278 278 277 278 279 279 279 280 279 279 280 280 280 280 279 278
269 268 268 268 268 267 266 265 264 264 263 262 262 261 261 260 260 261 261 261 262 261 262 262 262 262 262 262 262 262 263 266 269 271 272 273 274 272 271 270 270 270 270 270 269 269 269 269 270 270 270 270 270 270 272 273 274 275 275 276 277 278 279 277 276 276 276 276 277 278 278 278 279 280 280 280 279 280 279 279 279 279 279 279 279
267 267 267 266 265 265 264 263 262 261 261 261 260 260 259 260 260 260 260 260 260 261 261 261 261 262 261 261 261 262 262 265 269 271 272 273 274 273 270 270 269 269 269 269 268 268 268 268 268 269 269 272 271 270 269 270 272 274 275 276 276 276 277 278 279 276 275 274 274 274 275 277 278 279 281 281 282 280 280 280 279 279 279 279 280
266 266 265 264 264 264 263 261 261 261 260 260 260 259 259 259 259 259 260 260 260 260 259 260 260 260 260 260 260 261 261 264 269 271 272 273 273 273 270 270 269 269 268 268 267 267 267 267 267 267 268 269 269 269 269 270 270 271 272 272 272 274 276 277 277 277 277 275 275 274 275 277 276 278 279 280 279 278 279 279 281 280 280 279 281
265 265 263 263 263 262 262 261 260 260 259 259 258 258 259 258 259 259 259 260 259 259 259 258 259 259 259 259 259 259 260 266 269 270 271 272 273 273 269 268 268 267 267 267 267 267 268 268 267 267 268 268 269 270 270 270 270 270 270 270 271 272 273 273 274 274 275 276 276 276 277 278 278 278 278 279 279 279 279 279 280 280 281 283 282
264 263 262 261 262 263 261 260 259 259 260 258 258 259 259 258 258 259 258 259 258 259 259 258 258 258 259 258 258 258 260 266 268 269 270 272 273 269 268 267 267 267 267 267 267 267 268 268 267 267 268 268 270 273 273 271 270 270 270 270 271 272 273 275 277 277 276 276 276 276 276 277 280 279 281 281 281 281 281 281 281 280 279 278 278
262 263 262 262 262 261 261 260 259 258 258 258 257 257 259 258 258 258 257 258 258 258 257 258 258 258 258 258 258 258 258 263 267 269 270 271 270 267 267 267 267 266 266 267 267 268 268 268 268 268 268 268 271 274 275 274 271 270 270 271 271 271 271 273 276 278 278 279 279 280 281 282 282 283 283 284 282 283 281 280 279 280 278 276 277
262 261 262 261 261 261 261 259 258 257 256 256 257 258 257 257 257 257 257 257 257 257 257 257 257 257 257 257 258 257 258 262 267 268 270 270 270 267 267 267 266 266 267 267 268 268 268 270 270 268 268 268 272 275 276 274 272 271 271 270 269 269 270 271 272 273 277 278 278 278 279 279 280 280 281 281 282 281 277 275 278 279 277 278 277
261 261 261 261 261 260 259 258 258 257 256 257 256 256 256 257 257 257 257 256 257 257 257 257 257 257 257 257 259 259 258 260 265 267 269 270 269 268 268 267 266 266 267 267 267 267 268 269 271 271 271 272 275 276 276 275 272 271 271 270 270 269 270 271 271 270 271 271 272 273 274 275 275 275 275 279 280 279 278 277 278 277 276 277 277
262 261 261 261 260 258 258 257 257 256 257 256 255 256 256 256 256 257 256 256 256 256 256 256 256 256 257 257 257 258 258 258 260 267 269 270 271 269 268 267 266 266 267 267 266 267 268 268 269 273 275 275 276 276 276 277 273 273 272 271 270 269 272 272 272 272 272 272 272 273 273 274 274 275 275 275 276 276 277 277 277 277 276 276 277
261 260 260 259 258 258 256 256 255 255 254 255 256 255 255 256 256 255 255 255 255 255 255 255 255 256 257 257 257 258 258 258 259 267 269 270 271 271 268 268 268 267 267 267 267 267 268 268 268 272 275 276 276 276 277 277 276 274 273 272 272 273 276 274 274 276 274 274 274 274 274 274 273 273 274 274 275 276 276 277 277 277 277 276 276
260 258 258 257 256 255 254 254 255 254 253 253 254 255 255 255 255 254 255 255 254 254 254 255 255 255 256 257 257 257 259 261 260 264 268 270 271 272 269 269 270 269 269 269 269 269 269 270 270 272 275 276 276 277 277 277 277 274 273 277 278 278 275 275 274 273 272 272 271 271 271 271 271 271 272 273 274 275 277 277 278 278 278 278 278
259 257 256 255 255 254 253 253 253 253 253 254 253 254 254 253 253 254 254 254 254 254 254 255 255 255 256 256 257 257 258 259 264 263 268 270 272 272 273 272 274 271 269 268 269 269 270 271 271 274 275 276 276 277 277 278 277 275 278 278 278 278 276 273 273 272 271 270 269 269 269 269 269 270 270 271 272 274 275 276 277 278 278 278 279
256 255 255 254 253 252 252 251 252 251 252 252 251 252 253 253 253 253 254 254 254 254 254 254 254 254 254 255 256 258 259 259 263 267 267 270 272 273 273 274 274 271 271 270 271 271 271 271 271 275 276 276 277 277 277 277 275 277 277 277 277 276 274 272 272 271 270 269 269 269 269 269 269 269 270 271 272 272 273 273 274 275 276 277 278
253 253 251 251 250 250 250 250 250 250 250 251 252 253 253 251 253 252 253 253 253 253 253 254 253 254 254 255 257 258 260 260 261 264 269 271 272 272 273 274 274 275 271 271 271 271 274 276 276 276 276 277 277 277 276 275 276 276 276 276 276 272 270 269 268 268 267 266 266 266 267 268 268 269 271 271 272 272 272 272 273 274 274 275 276
252 252 250 250 250 250 250 251 250 251 251 252 251 252 252 253 253 253 253 253 253 253 253 253 253 254 255 257 258 260 262 263 264 265 267 268 268 271 272 274 274 274 274 272 274 275 276 276 277 277 276 275 273 272 272 272 275 276 276 274 270 269 268 267 267 267 266 266 267 267 268 269 269 270 271 271 271 270 271 271 271 271 272 273 273
253 252 251 251 250 250 250 251 251 252 250 250 251 252 253 252 252 253 253 253 253 253 253 254 255 256 257 259 261 262 263 264 265 265 265 266 267 268 269 270 272 273 271 271 272 271 272 273 273 275 275 275 275 274 274 273 270 269 268 268 268 268 268 268 268 268 268 268 268 269 269 269 270 271 270 271 271 272 272 272 271 271 272 272 272
252 251 250 249 250 250 250 254 253 251 252 251 252 252 252 252 252 252 253 253 253 254 254 255 257 258 259 260 260 261 263 265 266 266 266 267 269 270 271 271 270 270 270 271 272 272 272 273 273 271 269 269 268 267 266 265 266 266 266 266 267 268 270 271 271 270 270 270 269 270 270 270 269 269 270 270 270 271 273 272 272 272 273 273 272
252 250 249 249 250 252 251 250 251 251 251 251 252 253 253 253 253 254 256 256 256 256 255 256 258 259 260 261 263 264 264 264 265 270 270 272 271 270 270 270 271 271 272 274 271 270 270 269 268 267 266 265 264 263 263 264 264 265 265 266 267 267 268 268 267 268 269 269 268 269 269 269 269 270 270 270 270 271 272 271 271 271 272 273 272
249 248 250 249 249 249 250 250 249 250 250 251 251 252 257 260 260 259 259 263 266 268 268 264 266 267 266 266 266 264 264 266 271 272 272 273 273 274 274 274 274 272 272 273 270 268 266 264 264 263 262 262 261 262 263 264 264 265 266 267 267 266 267 267 267 268 269 269 269 269 269 269 269 269 269 269 270 271 272 272 271 272 272 272 272
250 250 250 250 251 251 250 250 250 251 251 251 251 252 252 255 260 263 264 265 266 268 269 269 270 270 267 265 266 270 270 271 271 272 272 273 273 273 273 272 272 271 271 268 264 262 261 260 261 261 262 262 263 263 264 264 264 264 264 264 264 265 266 266 267 268 269 269 269 269 269 269 269 270 269 270 270 271 271 271 271 271 271 272 272
251 251 250 250 251 252 250 251 251 251 251 251 251 251 252 252 254 259 262 263 265 266 267 267 268 268 268 268 266 266 268 270 271 271 272 272 271 271 271 270 269 269 269 266 259 258 258 258 258 259 260 260 261 261 261 261 261 261 261 261 261 263 264 265 267 267 267 267 268 269 270 270 270 270 270 270 271 270 270 271 271 271 272 273 273
252 250 250 250 251 252 252 251 251 251 250 251 251 250 251 251 252 253 256 261 262 263 264 265 265 266 267 268 269 268 268 269 271 271 271 270 270 270 269 267 267 267 266 259 256 256 257 257 257 258 258 258 259 259 259 259 259 259 260 259 260 262 263 265 266 266 266 267 269 270 270 271 271 270 271 271 271 270 271 271 271 272 272 273 274
251 250 250 250 250 250 250 251 251 251 251 252 251 252 252 253 252 252 253 253 255 258 260 262 264 265 265 267 267 268 268 269 270 271 270 269 269 269 267 262 264 265 263 257 256 255 256 256 257 257 257 257 258 258 258 258 258 258 259 259 260 262 263 265 265 265 265 267 268 270 271 271 271 271 270 270 271 271 271 271 272 272 272 273 273
248 251 253 253 250 251 251 253 252 251 251 251 251 251 252 253 254 253 252 252 252 253 253 254 258 262 262 263 265 267 268 269 270 269 269 268 268 267 263 256 255 255 256 254 255 254 255 256 255 256 256 256 256 257 257 257 257 258 258 259 260 261 262 262 263 264 265 266 268 269 270 270 271 271 271 270 270 270 270 271 271 272 272 272 273
250 251 251 252 252 252 252 251 252 251 251 251 252 253 253 253 252 252 252 253 252 252 253 253 253 259 262 263 264 265 267 268 269 268 267 267 267 264 255 254 254 254 254 254 254 255 255 255 256 255 256 256 256 256 257 257 257 258 259 259 260 260 261 261 263 264 265 266 267 267 268 268 269 270 271 271 271 271 271 271 272 272 273 273 274
249 250 251 251 251 252 251 250 250 251 255 255 254 253 253 252 252 251 251 251 251 252 252 253 253 254 257 256 258 262 265 267 267 266 265 265 264 258 251 253 253 254 254 254 255 255 254 254 255 255 255 256 256 256 257 257 258 258 260 260 260 260 261 262 264 264 264 264 266 266 266 266 267 268 270 270 271 271 272 272 272 272 273 273 273
249 251 250 250 250 250 251 251 251 255 254 253 252 250 251 250 250 251 251 251 252 252 252 251 254 252 252 253 257 257 259 265 264 261 260 259 256 254 253 253 254 253 253 254 254 254 254 254 255 255 255 256 256 257 257 257 258 258 259 259 260 260 263 263 264 263 264 264 265 265 265 266 266 267 268 269 269 271 272 272 272 272 273 273 273
248 252 254 255 256 253 251 251 251 250 250 250 250 250 251 250 250 250 250 249 250 250 251 251 251 252 252 253 254 257 261 259 255 253 253 253 253 252 252 253 253 254 254 254 254 254 254 254 255 256 256 256 257 257 257 258 258 259 259 260 260 261 262 262 262 263 263 263 264 264 265 265 266 267 267 268 268 270 271 272 273 273 272 273 273
250 251 252 255 253 255 254 253 251 249 250 249 248 248 250 250 249 249 249 249 250 250 250 251 251 251 252 253 255 259 260 257 254 252 252 252 253 253 251 252 253 253 254 254 254 254 254 255 255 255 256 256 257 257 258 259 259 260 261 261 261 262 262 262 262 263 263 263 264 264 264 265 265 266 266 267 268 269 270 271 273 274 274 273 273
247 251 252 254 254 252 252 251 249 248 247 248 249 248 249 250 250 251 249 250 250 250 251 250 251 251 253 256 262 263 259 254 252 251 251 252 252 252 252 252 253 253 254 254 254 255 254 255 255 256 256 257 257 258 259 260 261 261 262 262 262 262 263 263 263 263 263 263 264 264 264 264 265 265 265 266 269 269 269 270 271 273 274 274 273
246 247 248 250 251 249 248 249 248 251 249 249 248 248 249 250 250 250 250 250 251 251 250 250 250 251 254 258 261 263 258 252 251 251 252 251 252 252 253 252 252 252 253 254 255 255 255 256 256 256 256 257 258 259 260 261 262 262 263 263 263 263 263 263 263 263 263 263 263 263 264 264 265 265 265 267 266 266 267 268 269 270 271 272 273
248 247 247 248 247 247 247 248 248 246 246 246 248 250 251 251 249 250 250 250 250 250 250 250 250 251 252 257 257 258 252 250 252 251 251 251 251 252 252 251 252 252 252 253 254 255 255 255 255 256 257 257 258 259 260 261 262 263 263 263 263 263 263 263 263 263 263 263 263 263 263 264 264 264 264 265 264 264 265 265 266 267 268 269 270
248 248 248 248 248 248 248 247 247 247 247 250 251 250 251 250 249 249 249 248 249 248 249 249 250 250 251 252 253 251 248 249 249 249 250 251 251 251 251 251 251 252 252 252 253 254 254 254 255 255 256 257 258 259 260 262 263 263 264 264 264 264 264 264 263 263 263 263 263 263 263 263 264 264 264 264 264 264 265 265 265 266 267 267 267
246 246 247 246 246 245 246 246 247 247 249 250 247 248 249 247 248 248 248 248 249 249 249 249 250 250 250 250 249 249 249 249 250 250 250 250 250 250 251 251 251 251 251 252 252 253 253 254 254 255 255 256 257 259 260 262 263 264 265 265 264 264 264 264 264 264 264 263 263 263 263 263 263 263 263 264 264 264 264 264 264 266 266 266 266
246 246 247 246 246 247 247 245 248 247 247 247 248 248 247 247 247 247 248 248 248 249 249 249 248 248 250 249 249 249 249 248 249 249 250 250 250 250 250 250 250 250 251 251 251 252 252 253 254 254 255 255 257 258 260 262 263 264 265 265 266 266 266 266 265 264 264 263 262 262 263 263 263 263 264 263 263 263 263 263 263 264 265 266 267
245 246 246 247 246 247 247 247 246 247 247 247 247 247 248 247 247 248 248 249 249 249 249 248 248 248 248 248 248 248 249 249 249 249 249 249 249 249 249 249 250 250 250 250 251 251 251 252 253 253 254 255 256 258 260 261 263 264 265 266 266 267 267 266 265 263 263 262 262 261 261 262 262 262 262 263 262 263 263 263 263 263 264 265 266
245 245 246 246 246 246 246 245 247 250 248 248 247 247 248 248 247 248 246 247 247 247 248 247 247 247 248 248 248 248 249 249 249 250 249 249 249 249 249 249 249 250 250 250 250 251 251 251 252 252 253 254 255 257 259 260 262 264 265 266 266 267 267 266 265 263 262 261 260 260 260 260 260 261 262 262 262 263 263 263 264 264 264 264 265
245 245 245 245 246 246 246 247 247 247 247 247 246 247 247 246 246 246 247 246 247 247 246 247 247 247 247 247 248 248 248 249 248 248 248 249 249 249 249 249 250 249 249 249 250 250 250 251 251 252 252 253 254 255 257 259 261 263 264 266 266 267 267 267 266 264 263 261 259 259 259 259 259 260 261 261 261 262 262 262 263 263 263 264 263
246 246 246 246 247 247 247 247 247 247 246 246 246 246 247 246 246 246 246 246 246 246 246 246 247 247 246 247 248 248 248 248 248 248 248 249 249 249 249 249 248 249 249 249 249 250 250 250 250 251 252 252 253 254 256 258 260 262 263 265 266 267 267 267 266 265 263 260 259 258 258 258 259 259 260 260 259 260 261 261 262 262 262 262 262
246 246 246 247 247 247 246 245 246 246 245 246 246 246 246 246 246 246 246 246 246 246 247 246 246 246 247 246 247 247 248 248 248 248 249 249 249 249 249 248 249 248 249 249 249 249 250 250 250 251 251 252 253 254 255 257 259 260 262 265 267 267 267 267 266 265 264 263 259 258 258 258 258 258 259 260 259 259 261 261 261 260 261 261 261
Wind_Speed
4 4 4 4 5 5 5 5 6 5 7 7 8 7 7 7 7 5 4 7 6 7 8 7 7 7 7 7 7 7 7 7 6 5 5 5 5 5 6 7 8 8 7 8 6 7 7 8 8 7 7 8 8 7 7 7 7 6 6 6 7 6 7 9 12 15 10 5 11 8 7 6 9 6 10 7 7 7 7 6 6 7 7 7 8
3 4 4 5 6 5 5 5 5 6 7 8 8 8 7 7 6 7 8 7 8 9 9 8 8 8 8 8 7 7 7 6 6 6 7 7 6 5 6 7 7 8 7 9 8 7 8 9 8 7 6 9 9 8 7 8 8 8 8 6 7 8 6 8 11 12 16 7 9 10 8 5 11 5 8 10 8 5 8 7 6 6 7 7 7
3 4 5 6 5 4 5 6 6 7 8 7 7 6 6 6 6 6 6 6 5 6 6 6 7 8 7 8 9 9 10 9 9 9 9 9 10 10 8 8 9 9 10 9 9 8 9 9 10 8 7 9 8 8 7 8 8 9 10 7 8 9 7 7 10 14 15 12 7 11 9 6 8 9 5 8 8 7 9 8 7 6 5 6 7
3 5 5 6 4 6 6 5 7 6 7 6 6 6 6 6 5 6 6 6 7 6 6 7 6 7 6 6 6 7 8 8 8 9 9 10 10 11 10 10 10 10 11 11 11 10 10 11 10 8 8 10 10 9 7 8 8 8 9 9 8 10 9 8 9 11 13 14 9 8 10 10 10 8 6 7 8 8 7 8 4 6 7 6 7
5 5 5 6 6 6 6 5 6 7 6 6 6 6 6 6 6 7 7 7 7 6 6 6 6 7 7 8 8 8 8 9 9 9 8 8 9 9 10 10 10 11 11 11 10 10 10 10 11 10 9 11 11 8 7 9 9 9 9 9 9 9 9 9 10 10 12 15 14 8 7 10 9 11 7 9 9 8 7 8 7 7 7 7 7
4 5 5 6 5 6 5 6 6 6 6 6 6 6 6 6 6 6 6 7 6 6 6 6 6 7 7 7 7 8 8 8 8 9 9 9 9 10 9 10 10 10 10 10 10 9 10 11 12 11 11 12 13 12 9 10 10 10 10 10 9 9 11 11 10 11 12 14 13 13 7 9 10 9 8 6 9 11 9 8 6 6 7 8 8
5 6 5 5 5 5 5 5 5 5 5 5 5 5 6 6 6 7 6 6 6 7 7 6 6 6 7 6 8 8 8 8 8 8 8 8 9 9 10 10 10 10 9 11 11 11 10 10 11 10 11 11 12 13 13 13 11 12 11 10 10 10 11 11 11 12 12 14 14 12 11 8 7 11 7 6 9 10 10 9 10 7 6 7 9
5 5 5 5 5 4 4 4 5 5 5 5 6 6 6 6 7 7 6 7 7 7 8 8 7 6 6 6 6 6 7 7 7 7 8 8 9 10 9 10 10 11 11 11 10 10 10 10 10 10 11 10 11 12 12 12 12 13 11 10 10 11 11 11 11 11 12 13 13 13 10 10 8 6 5 4 8 10 5 7 12 11 8 5 7
5 4 5 5 4 3 4 4 5 5 6 5 6 6 6 6 6 6 6 6 6 7 7 8 8 8 8 8 8 7 7 7 6 7 9 11 10 11 11 10 12 12 12 12 11 9 9 8 8 9 12 18 23 20 19 18 14 14 13 10 10 11 12 12 11 11 11 12 14 12 12 11 10 9 9 7 8 11 9 4 9 10 8 8 9
5 5 5 4 4 4 5 4 4 4 5 5 6 5 5 6 6 5 6 6 6 6 7 7 6 7 9 8 7 6 6 5 9 17 15 12 13 11 12 12 12 13 13 14 13 11 11 10 10 19 20 21 20 21 21 22 22 18 15 14 12 12 12 13 12 11 10 12 12 12 13 12 11 10 10 9 7 6 8 7 11 11 9 9 10
4 4 4 3 4 4 4 4 4 4 4 5 3 3 5 4 4 4 4 4 6 6 6 7 6 7 7 8 8 6 6 6 16 18 19 20 14 12 12 13 12 13 12 13 13 14 13 13 12 14 15 15 14 20 21 22 22 23 25 24 20 16 14 14 13 11 12 11 11 11 13 15 15 12 12 10 9 7 9 9 10 10 11 9 13
5 3 3 3 3 4 3 4 3 3 3 3 3 3 3 3 3 3 4 4 4 3 5 5 6 6 6 7 7 7 7 12 18 19 19 20 18 13 12 11 11 11 11 12 12 12 13 13 12 11 10 12 12 12 15 20 22 22 23 24 24 26 25 18 15 13 12 12 12 12 12 14 13 10 9 7 8 8 7 8 10 10 12 11 10
4 3 3 4 3 3 3 3 2 2 2 2 2 3 3 4 4 5 5 4 4 4 6 7 6 6 7 8 9 8 8 13 18 19 19 20 20 17 11 11 11 11 12 12 12 12 12 12 12 10 10 17 14 11 11 12 17 22 22 22 22 23 22 25 25 20 16 17 16 18 17 15 16 12 6 7 7 11 9 10 8 9 10 12 12
3 4 3 3 2 3 4 3 3 3 2 3 3 3 4 4 4 4 4 4 4 4 4 6 6 6 7 8 9 9 8 14 19 20 20 20 20 18 12 12 11 11 12 12 11 12 12 12 12 12 11 12 12 13 13 13 13 13 13 12 10 15 19 22 22 24 21 16 15 17 15 11 13 13 11 11 14 13 12 13 9 11 11 13 12
3 4 3 2 3 3 3 3 3 2 3 3 3 3 3 3 4 4 4 5 6 6 6 6 6 6 7 7 8 10 8 18 19 21 20 21 21 18 11 11 10 11 11 12 12 12 12 12 13 13 13 13 12 15 15 15 13 12 12 12 12 12 13 13 13 13 13 12 14 15 16 14 13 15 15 13 13 14 14 15 15 14 14 14 14
4 3 2 2 3 3 2 2 2 2 3 3 3 4 4 4 5 5 4 4 3 4 5 4 7 7 7 8 9 10 9 18 20 20 21 21 22 12 9 11 11 11 11 11 12 11 12 12 12 13 14 14 18 24 21 17 15 15 15 14 13 11 10 12 19 20 18 15 14 15 16 18 23 20 19 15 13 13 13 14 13 13 13 14 16
3 3 2 2 2 2 2 2 2 3 3 4 4 4 5 5 4 3 5 5 6 5 5 6 6 7 8 8 9 11 9 14 20 21 21 22 17 10 9 8 10 11 12 12 12 12 12 13 13 14 15 15 20 25 26 24 16 15 14 13 11 11 11 11 18 23 24 25 27 29 30 29 28 29 30 33 25 19 14 13 12 10 14 15 14
3 3 2 2 2 2 2 1 2 3 3 4 4 4 3 3 3 3 5 7 7 5 6 7 5 6 8 9 8 11 11 14 21 21 21 21 18 11 8 8 8 9 11 11 11 11 13 22 21 16 15 14 23 27 27 22 14 13 12 14 14 12 11 11 10 12 21 25 26 28 28 28 28 30 29 28 27 21 14 15 12 9 12 10 13
4 3 3 2 2 2 1 1 1 2 3 3 3 5 4 4 4 4 4 4 7 6 6 7 7 6 6 9 13 13 11 13 19 20 22 21 16 10 9 8 7 8 11 11 10 10 11 14 22 21 19 20 28 25 26 21 14 12 12 13 14 14 12 12 12 13 11 12 12 13 15 17 15 13 14 26 28 23 14 13 12 11 12 11 12
3 3 2 2 2 1 1 1 1 2 4 3 3 4 4 4 4 4 5 4 6 6 6 7 9 9 7 8 8 8 11 10 12 22 21 21 21 13 9 8 9 10 10 9 10 9 9 11 14 22 27 27 26 27 25 26 18 14 12 12 12 15 12 13 13 14 14 13 13 12 13 11 10 10 10 11 12 13 15 14 13 12 13 15 13
3 2 2 1 1 1 1 1 2 3 3 4 4 4 4 5 5 5 6 5 5 7 7 8 8 9 8 8 8 9 8 11 12 20 21 21 22 18 9 9 10 10 10 11 9 11 9 10 9 18 26 27 27 28 27 26 25 17 12 11 12 16 19 13 12 16 12 10 10 9 9 8 9 9 9 10 10 10 11 14 13 13 14 13 14
3 2 1 0 0 1 1 2 1 3 3 3 4 5 4 4 4 5 5 5 7 8 7 7 8 9 8 7 7 9 10 15 12 16 20 21 21 23 13 10 12 11 11 9 9 9 9 10 10 18 28 28 28 28 30 28 29 17 14 22 27 27 19 14 12 9 9 9 10 9 8 8 9 8 9 10 10 11 11 11 11 13 13 13 12
2 2 1 0 1 1 2 2 3 2 3 3 4 6 4 4 4 4 6 6 7 8 7 7 8 9 9 7 6 8 9 10 18 15 19 21 22 21 23 18 21 14 11 12 11 11 8 10 12 24 29 29 29 30 29 31 24 14 24 26 26 27 22 11 9 9 9 10 10 10 9 9 10 10 9 9 9 10 10 11 11 12 12 13 14
2 1 0 1 1 2 2 3 3 3 4 4 4 5 5 4 4 4 5 5 7 8 6 6 7 8 10 10 7 7 8 8 12 19 18 22 22 23 22 23 23 15 13 11 11 12 13 14 16 29 29 30 30 28 26 23 16 24 25 26 25 23 12 10 9 10 10 10 11 11 10 8 9 9 8 8 9 10 10 11 12 14 14 13 13
1 1 1 2 2 3 3 3 4 4 4 3 4 4 5 4 6 4 4 5 6 7 7 5 7 8 9 10 10 8 8 8 8 12 20 21 23 22 22 24 24 25 17 12 12 12 18 28 31 30 29 29 30 27 21 21 25 24 24 24 23 10 9 9 11 10 11 11 11 10 10 10 10 10 10 10 12 12 11 10 11 11 12 13 14
1 2 3 2 3 2 3 4 4 4 4 4 4 4 4 5 5 6 5 6 6 7 7 6 7 7 9 9 10 9 9 8 9 9 10 13 15 20 25 25 25 24 23 18 23 28 28 29 32 31 27 23 15 10 8 9 20 24 25 23 11 10 9 10 10 10 10 10 11 11 11 11 10 9 11 11 10 9 9 11 10 11 9 11 11
3 2 3 3 3 2 3 4 4 3 3 3 3 3 4 4 5 6 6 7 7 6 7 7 7 7 8 9 10 10 10 9 9 8 7 8 10 13 14 13 17 18 12 11 14 15 19 20 17 21 18 22 21 19 17 16 13 11 9 8 8 8 9 8 9 10 10 10 11 11 9 10 9 9 10 9 9 8 8 11 10 11 11 10 13
4 4 4 3 3 3 3 4 4 4 4 4 4 5 4 4 5 7 7 7 7 7 6 7 8 8 8 9 10 9 9 8 7 8 10 10 10 10 10 11 11 11 11 10 10 11 11 11 12 7 6 6 7 6 6 7 8 9 8 8 9 10 13 18 18 12 11 11 11 10 12 11 11 10 9 9 10 9 9 10 10 10 9 9 10
3 3 3 2 3 2 3 3 3 4 4 4 4 5 6 6 7 8 8 8 8 9 7 8 10 10 8 7 7 7 9 9 9 15 16 19 17 14 11 11 11 10 15 24 17 12 10 9 7 8 7 8 8 8 8 8 8 8 10 9 9 9 9 8 9 10 10 9 10 11 11 10 10 10 9 11 9 10 9 10 11 11 11 11 13
2 3 3 3 3 2 3 3 3 3 4 5 5 6 8 12 10 7 8 13 18 19 16 9 8 8 7 7 7 8 8 9 20 24 22 23 24 25 23 24 23 18 21 26 17 10 8 8 9 8 9 7 8 8 8 7 8 8 8 11 10 8 8 9 8 9 9 10 10 11 10 10 11 10 9 9 10 8 10 12 11 9 10 10 11
3 3 3 3 3 3 3 3 3 4 4 4 4 6 7 7 11 15 14 14 15 17 16 18 19 17 10 7 9 18 20 20 20 20 22 22 23 23 23 22 23 23 22 14 8 8 8 9 9 9 8 8 8 8 9 9 10 10 10 9 10 11 11 8 9 8 10 10 12 10 12 11 11 10 10 10 10 9 8 9 10 10 11 11 11
5 5 4 3 3 3 3 3 3 3 4 3 4 4 5 9 10 7 9 11 13 15 15 15 13 13 15 14 12 8 14 17 19 20 20 20 20 21 21 21 20 19 18 15 6 7 7 7 8 8 9 9 9 10 10 10 10 10 11 11 12 11 11 11 12 11 13 12 12 12 10 10 10 10 10 10 10 9 8 9 10 9 9 10 11
5 4 4 3 3 3 3 3 3 3 4 4 4 3 5 5 8 12 10 9 10 12 12 11 13 15 17 17 17 14 14 16 19 19 19 19 19 19 20 19 17 17 15 9 6 6 6 7 7 8 8 9 9 9 9 9 9 10 9 11 12 13 12 14 15 12 13 12 12 11 10 10 10 10 10 10 9 10 9 9 9 10 10 11 11
5 4 4 3 3 3 3 3 4 4 3 4 4 4 4 4 6 6 9 12 9 5 5 11 15 17 16 17 16 16 16 17 17 17 17 18 19 19 19 12 13 14 12 7 7 7 6 7 7 7 7 8 8 9 9 9 9 9 10 10 11 11 12 10 11 11 12 12 11 10 11 10 10 11 11 10 10 9 9 10 9 10 10 9 8
4 4 5 4 3 4 4 3 4 3 3 4 4 4 5 4 4 5 6 7 9 12 9 6 10 15 14 12 14 16 17 17 15 16 17 17 17 19 16 9 10 7 6 3 5 5 7 7 8 8 7 8 8 8 9 9 9 9 9 10 10 11 11 11 10 11 11 11 11 11 9 11 11 11 10 10 9 9 9 9 9 9 8 9 8
4 3 3 3 3 3 4 4 4 4 4 4 5 5 4 3 5 5 5 6 7 9 10 6 4 9 16 14 15 16 18 16 14 15 16 16 17 17 10 10 8 8 7 6 4 5 5 6 7 8 8 8 8 8 8 9 9 9 9 10 10 10 10 10 11 10 11 10 12 13 13 11 12 12 11 11 11 11 10 9 9 9 9 9 9
4 4 3 3 4 4 4 4 4 4 6 5 3 2 4 4 6 4 6 6 7 7 8 9 7 6 6 6 9 14 17 14 13 15 15 15 15 8 3 5 6 8 9 8 8 7 7 6 6 7 8 8 8 8 8 9 9 9 10 10 9 9 9 9 11 11 12 11 11 11 11 12 12 12 12 12 11 10 10 10 11 11 11 12 12
4 4 4 3 3 5 4 5 4 7 4 2 3 2 4 4 4 5 6 6 6 7 8 9 7 7 7 8 11 9 11 11 12 10 10 10 9 6 6 5 5 6 8 8 7 8 8 8 7 7 8 8 8 9 8 9 9 8 9 9 9 9 16 15 14 12 11 10 9 9 11 10 10 11 12 12 12 12 11 11 10 10 10 11 9
3 5 8 9 6 5 5 4 4 2 2 3 3 4 5 4 4 5 5 5 6 6 7 7 8 8 7 6 7 9 10 6 7 8 8 6 5 5 5 5 5 6 6 7 7 7 7 8 9 8 8 8 8 9 8 9 9 9 9 9 9 9 10 9 10 9 9 9 10 9 9 10 11 11 11 11 12 12 12 12 11 10 10 9 9
4 3 4 7 5 5 4 4 3 2 5 3 4 3 4 5 5 5 5 5 6 6 6 7 7 7 7 7 7 7 6 6 6 6 7 7 6 5 4 5 6 6 7 8 8 8 8 8 8 8 9 9 9 9 9 9 9 9 9 8 9 10 10 9 9 10 9 9 9 10 10 11 11 11 11 10 11 11 12 12 12 10 9 9 9
4 3 3 5 5 4 3 3 3 3 3 4 4 4 4 5 5 6 5 5 6 6 6 7 7 7 7 10 17 15 6 5 6 6 6 6 6 6 6 5 5 7 7 7 8 8 8 8 9 9 9 9 9 9 9 9 9 9 9 9 9 9 9 9 9 9 10 10 10 10 11 11 11 11 11 11 13 12 11 10 10 10 9 8 8
5 4 3 3 4 2 2 5 5 4 3 4 3 4 6 6 5 5 5 5 6 6 6 7 7 6 10 17 15 16 8 4 5 7 6 6 6 6 6 6 5 5 6 7 8 9 9 9 9 9 9 9 9 9 9 10 10 10 10 9 9 9 10 10 10 10 10 10 11 11 11 11 12 12 12 12 10 10 9 9 9 8 9 9 7
5 4 4 4 3 4 4 4 3 2 3 4 4 4 5 5 4 5 5 6 5 6 6 7 7 6 7 11 12 13 6 6 5 6 6 7 6 6 6 7 7 6 6 7 7 7 8 8 9 9 9 10 9 9 10 10 10 10 10 10 9 9 10 10 10 10 10 10 10 11 11 11 10 9 9 9 9 9 9 9 8 8 7 7 7
4 4 5 4 4 3 4 3 3 4 3 5 5 6 5 5 4 4 5 5 6 5 6 6 6 7 7 8 7 6 5 6 5 6 6 7 7 7 7 7 7 7 7 7 7 7 7 8 8 8 8 9 9 10 9 9 9 10 10 11 10 10 9 10 11 11 10 10 10 10 10 10 10 10 9 9 9 9 9 9 8 8 7 7 6
4 4 4 4 3 4 4 3 4 4 5 5 4 4 5 4 5 5 5 6 6 6 6 6 6 5 7 7 6 6 6 6 6 7 6 6 7 7 7 7 7 7 8 8 7 7 7 8 8 8 9 9 9 9 9 9 9 9 9 10 10 9 10 11 11 10 10 9 8 9 9 9 9 9 9 9 9 8 8 8 8 7 7 6 6
5 4 5 4 4 5 5 3 5 3 4 5 5 5 5 5 5 5 6 6 6 6 6 6 5 5 6 6 6 6 6 5 6 5 7 6 6 7 7 7 7 7 7 7 7 7 8 8 8 9 10 10 10 10 10 10 10 9 9 9 10 9 9 9 9 9 10 9 9 9 9 8 8 8 10 9 8 8 8 8 7 7 6 6 6
4 5 4 5 4 5 5 5 3 4 4 5 5 5 5 5 5 5 6 7 6 7 6 6 5 6 6 6 6 6 6 5 6 6 6 6 7 7 7 7 7 7 7 7 6 7 7 8 7 8 9 9 10 11 10 10 10 9 8 9 10 10 10 9 9 8 8 8 8 8 8 8 8 8 9 9 8 8 8 8 8 8 8 6 6
5 5 4 5 3 4 4 3 5 5 5 6 5 5 6 5 5 6 6 6 6 6 6 6 6 6 6 6 6 6 5 6 6 6 6 6 6 7 7 7 7 7 8 8 7 7 7 7 8 8 9 9 10 10 10 10 10 10 9 9 10 12 14 13 9 9 8 7 7 7 7 8 8 8 8 8 8 8 8 8 8 8 8 7 7
5 5 4 4 4 5 5 5 6 5 5 5 4 5 6 5 6 6 6 5 5 5 6 6 6 6 5 6 6 6 6 7 6 6 6 6 6 6 7 7 7 7 7 8 8 8 8 8 8 8 8 8 9 9 10 10 11 11 11 9 13 20 17 16 11 9 11 8 7 7 7 7 8 8 8 8 8 7 7 7 7 8 7 7 7
5 5 4 4 5 5 5 5 5 5 5 6 6 6 5 6 5 6 6 5 5 6 5 5 6 6 6 6 7 6 5 6 6 7 7 7 6 6 6 7 7 7 7 8 8 8 8 8 8 8 8 8 9 9 9 10 10 11 10 12 18 18 17 16 13 14 11 7 8 7 7 7 7 7 8 8 8 8 7 7 7 7 7 7 7
6 4 5 5 5 5 5 4 5 5 5 5 6 6 6 6 6 6 5 6 6 6 5 6 6 6 6 6 6 6 6 6 6 6 7 7 6 6 6 7 7 7 7 7 8 8 8 8 8 8 8 8 9 9 9 9 10 10 16 22 18 17 17 15 11 12 15 10 7 7 7 8 7 8 8 8 7 7 9 8 7 6 6 5 5
Wind_Direction
74 75 80 75 79 69 62 55 50 52 53 46 48 39 35 31 32 18 12 21 12 9 10 5 4 3 360 1 0 355 355 351 350 348 339 335 330 321 323 326 322 319 317 315 315 313 310 305 307 306 306 303 301 303 302 297 292 276 263 256 259 249 240 250 260 271 275 234 275 275 270 280 281 238 271 263 268 264 254 252 252 253 254 253 257
84 97 87 80 71 61 55 54 51 49 51 42 39 36 27 27 21 14 22 8 11 3 1 358 358 357 357 354 355 353 353 352 347 349 341 336 332 329 326 321 314 310 314 312 316 315 308 306 302 301 299 295 300 301 300 300 296 292 284 272 267 268 234 255 265 268 281 279 280 280 277 236 274 241 257 276 269 261 264 260 244 234 246 250 255
99 94 84 78 71 66 59 49 47 47 49 42 40 37 32 28 23 21 19 8 7 5 355 358 355 355 355 354 352 352 350 349 350 348 344 341 336 334 333 329 323 321 319 313 313 311 307 305 305 308 305 298 293 291 294 292 289 286 286 281 278 275 267 247 267 277 280 279 264 284 284 275 259 277 257 268 269 266 274 269 260 255 237 242 248
90 92 90 76 68 60 54 46 54 50 49 42 41 35 32 25 18 21 17 4 5 0 2 358 359 354 354 351 349 347 344 344 344 343 339 336 331 328 330 328 324 319 316 315 316 315 309 306 304 307 304 297 296 297 292 284 284 285 283 284 279 281 276 268 260 271 281 286 273 262 286 287 283 274 268 260 276 273 258 270 262 260 257 249 241
91 86 88 79 57 58 49 46 50 45 44 40 38 33 28 21 16 14 9 5 1 357 359 0 357 357 356 349 345 347 346 342 338 334 331 326 322 321 322 320 316 313 309 307 307 307 306 303 306 309 305 298 296 290 287 285 285 282 281 281 280 279 278 274 274 271 278 279 283 268 265 274 278 283 280 282 278 271 268 261 259 258 260 247 251
92 85 76 74 61 53 46 46 46 43 43 37 34 29 25 19 12 9 6 356 354 359 357 357 354 351 349 343 343 342 341 336 331 327 325 325 324 318 312 309 306 304 302 301 302 305 305 305 305 307 305 302 300 300 295 289 286 279 278 278 279 278 278 278 275 276 276 278 282 288 264 269 281 273 279 261 277 281 277 270 262 246 250 260 245
85 85 78 78 68 53 47 50 48 45 43 36 32 28 23 15 11 6 358 356 354 355 355 352 350 347 338 348 344 340 335 335 328 322 322 320 316 312 312 307 302 300 298 300 302 302 299 298 298 298 297 297 298 299 302 298 292 287 282 283 279 278 279 279 280 279 278 282 283 277 282 269 259 279 274 256 260 263 277 289 281 260 242 244 266
90 86 85 77 72 59 55 58 52 44 39 33 30 24 15 11 9 359 357 359 360 354 353 348 340 345 342 344 334 334 330 325 326 323 318 316 314 311 309 307 306 304 302 299 295 293 295 295 296 296 296 294 293 295 295 295 295 291 289 287 286 283 280 280 278 276 277 278 278 286 279 284 277 260 283 297 285 274 237 253 271 276 267 243 239
98 95 86 80 74 70 61 55 46 39 37 29 28 18 11 7 360 355 358 358 355 349 349 345 339 342 344 340 337 336 335 327 328 322 319 316 314 310 310 307 307 305 304 304 303 299 294 292 293 295 297 297 295 294 291 291 292 293 291 289 288 285 283 280 276 273 271 272 277 276 280 279 275 279 273 255 243 265 276 231 262 264 273 274 264
102 91 83 84 79 72 68 58 46 39 35 31 24 9 4 2 353 352 357 350 344 343 343 339 341 339 334 330 330 326 318 318 308 310 311 310 312 310 307 305 305 304 305 306 304 305 305 305 303 304 304 302 302 300 297 293 289 285 288 290 289 286 282 281 280 279 278 277 275 281 281 275 273 268 270 260 253 262 273 271 270 278 274 265 268
88 94 101 104 90 81 77 59 48 44 40 30 18 8 1 353 348 345 346 340 337 342 336 333 341 332 325 322 318 314 306 301 306 308 310 311 309 305 303 302 302 302 302 301 302 305 305 304 303 302 301 302 302 298 297 297 296 293 291 289 286 282 281 280 277 278 279 275 278 277 273 274 270 265 261 268 260 252 259 265 268 277 275 278 278
113 116 123 101 92 88 83 73 61 53 43 25 11 1 353 345 343 341 336 337 336 330 329 329 326 320 315 313 307 302 300 301 306 307 308 307 307 304 302 301 301 298 298 298 299 302 303 304 302 303 302 300 298 300 301 298 296 294 291 288 285 283 281 282 288 289 285 285 281 272 273 268 274 267 265 262 269 263 253 254 261 265 272 269 266
126 128 120 111 108 105 94 83 79 59 38 20 359 353 357 345 346 343 339 330 324 330 327 325 315 317 313 310 308 303 296 302 305 306 306 307 307 307 300 297 296 295 297 298 299 300 299 298 298 297 298 301 301 297 291 287 287 288 289 289 288 287 285 281 278 277 282 280 280 279 274 285 288 288 290 291 292 280 276 268 261 258 261 266 266
134 137 126 120 115 95 79 65 52 36 22 7 1 354 354 346 330 320 318 325 325 319 317 314 314 311 310 307 303 303 296 302 306 307 309 308 307 306 299 299 298 297 298 297 295 293 293 295 298 296 295 296 294 295 294 292 292 293 291 285 274 278 283 282 284 282 277 273 273 273 277 274 274 283 285 293 289 285 285 279 277 270 265 262 271
147 142 127 113 90 70 59 51 39 19 6 2 356 348 341 328 329 328 329 324 323 318 318 314 309 306 304 301 299 300 296 305 308 310 309 308 307 308 306 303 298 294 293 290 290 292 293 293 294 293 294 293 290 290 291 293 291 288 289 290 288 288 287 287 283 278 277 276 275 274 278 279 277 277 278 271 262 263 262 262 263 265 268 271 267
152 141 119 96 75 68 63 53 26 10 354 355 352 340 336 327 327 324 319 308 294 299 297 297 301 304 300 299 299 297 298 307 309 309 308 309 310 311 306 297 294 293 293 293 292 292 291 290 292 291 291 290 291 293 293 292 290 286 282 278 275 272 271 282 288 288 285 278 272 274 278 280 280 279 278 276 272 269 264 263 262 263 264 260 259
156 135 122 104 90 83 59 47 14 358 353 346 340 332 331 324 319 315 311 306 307 304 296 296 297 299 300 298 299 297 296 306 308 308 309 310 312 301 294 292 296 294 291 292 292 292 292 290 289 289 289 288 289 292 293 293 287 283 281 284 289 293 290 290 289 288 287 285 285 284 284 284 285 285 284 281 280 283 285 279 267 257 253 255 254
158 144 132 119 97 87 58 47 7 352 343 332 321 316 309 298 298 311 308 310 306 298 300 298 290 290 294 296 295 296 296 304 307 308 309 308 307 304 293 274 261 281 291 290 293 289 285 284 285 284 282 278 286 290 293 295 289 286 286 285 281 275 273 273 271 275 280 284 284 284 285 287 289 289 290 292 294 296 295 287 291 292 281 277 274
168 152 135 117 103 88 75 45 5 338 322 309 308 305 305 301 300 299 285 288 291 300 299 299 295 290 284 288 295 295 293 299 304 304 305 306 306 295 288 281 270 273 292 289 279 271 270 272 278 286 288 289 294 296 296 296 290 284 280 277 276 273 273 272 272 272 268 267 266 270 272 274 276 274 279 285 287 291 291 288 293 286 284 276 272
151 131 126 109 97 80 60 31 345 321 306 304 299 289 294 302 298 299 295 287 295 300 299 296 296 295 293 291 290 287 291 290 293 300 303 304 305 302 292 289 284 281 275 272 282 269 257 267 275 284 292 294 294 295 295 295 291 282 276 275 275 279 276 274 267 266 268 264 265 261 264 266 270 273 275 276 274 269 273 275 277 275 274 277 278
130 129 112 101 84 68 35 17 316 301 287 288 291 296 291 292 299 296 299 299 295 298 298 296 294 293 293 289 287 287 281 288 289 297 299 302 303 305 291 286 284 283 280 275 268 275 272 273 267 279 291 293 294 294 293 289 287 284 280 276 273 273 281 280 282 288 289 290 288 286 281 278 272 269 271 272 268 263 260 263 261 263 267 270 270
128 113 106 84 67 16 340 313 298 283 293 297 301 290 280 279 289 295 294 300 301 297 298 297 296 294 292 286 283 285 285 285 287 290 295 298 301 303 302 291 293 288 288 284 287 283 276 275 273 287 292 292 292 290 287 289 292 294 288 287 290 297 302 301 302 303 296 291 289 282 278 276 276 270 273 277 278 278 269 265 264 266 264 265 267
114 105 78 33 347 328 315 305 299 305 295 287 286 291 292 297 294 295 300 300 296 297 297 297 298 297 296 290 281 281 283 281 291 291 294 298 301 302 303 303 303 303 296 287 281 281 271 273 274 285 288 288 287 285 287 292 295 294 300 304 304 303 303 305 301 291 283 283 282 280 275 274 275 275 271 269 266 266 271 273 272 272 271 270 266
101 86 45 313 316 305 291 290 285 281 279 284 283 287 298 299 296 294 294 293 297 296 294 293 294 295 299 300 291 280 278 278 283 292 298 301 306 308 308 306 305 299 296 291 293 288 284 280 277 282 284 284 286 290 299 307 307 305 303 301 300 301 298 294 292 292 293 293 289 285 283 278 277 276 275 274 276 277 274 272 271 269 269 271 271
112 191 243 265 272 266 280 275 274 271 268 265 286 296 300 305 306 292 285 289 283 286 287 286 286 291 294 293 296 291 282 275 274 279 292 303 309 310 308 304 303 303 301 291 282 283 291 295 297 298 299 302 305 309 307 301 298 298 297 299 304 311 308 301 297 294 289 283 281 278 275 274 272 273 276 276 278 279 279 277 274 273 271 268 266
168 221 238 244 249 261 283 286 273 264 268 264 257 268 277 293 289 293 284 275 271 273 282 284 280 282 282 287 290 292 291 290 287 286 289 290 289 293 295 298 299 299 298 299 302 299 297 293 293 296 297 296 295 285 271 283 296 301 303 305 307 299 291 291 287 286 278 278 276 275 275 277 273 268 267 266 266 265 268 268 269 267 269 273 272
193 221 244 249 264 253 263 278 287 284 279 276 271 273 274 273 274 277 273 274 273 267 270 274 278 274 277 285 291 296 295 290 291 292 287 289 288 288 289 284 287 291 289 272 272 275 278 280 279 284 295 304 306 307 307 307 305 301 295 291 287 285 284 276 276 276 276 275 278 277 279 276 276 275 272 267 262 259 260 270 268 267 264 260 263
190 221 233 235 255 255 258 274 285 299 298 302 299 294 277 257 262 260 263 263 269 273 264 269 269 271 277 283 281 278 286 297 305 310 303 295 295 301 302 305 302 293 292 294 298 300 306 305 303 323 322 312 305 298 294 294 292 294 293 294 291 289 290 291 291 284 280 280 278 278 277 278 277 274 273 267 267 265 259 258 261 266 262 265 264
194 213 232 236 260 261 259 271 278 282 289 281 260 252 269 273 265 264 248 237 240 249 256 254 259 261 247 255 275 292 310 313 309 307 308 315 316 314 307 302 308 318 322 321 320 318 308 311 323 324 334 324 317 306 302 299 296 293 292 291 288 286 286 283 282 280 282 280 278 277 277 272 270 266 267 269 265 269 266 267 265 266 264 255 262
191 231 230 231 252 254 266 264 261 265 268 277 280 278 255 265 267 261 269 275 272 269 267 262 274 289 294 295 307 306 305 302 309 314 318 318 317 317 320 324 325 327 328 325 324 322 336 333 326 326 319 317 307 303 300 300 301 302 300 303 299 290 285 281 277 281 283 284 286 285 280 279 277 275 269 269 270 260 260 267 271 268 273 272 272
204 233 227 235 233 239 245 265 267 261 263 270 277 292 305 293 291 289 286 287 289 289 293 295 298 301 306 313 310 306 306 310 316 319 319 321 326 330 330 332 335 334 331 335 352 349 341 335 327 323 321 320 320 323 327 326 326 325 322 319 311 306 303 290 291 296 300 298 295 286 283 280 278 277 275 274 274 272 273 269 270 268 263 266 266
203 224 222 230 246 258 252 253 267 269 274 272 281 297 303 315 313 300 305 309 302 302 303 305 309 315 315 315 314 306 313 318 321 321 328 336 337 335 338 346 344 342 347 7 2 348 339 332 327 326 328 327 328 329 326 325 322 322 319 318 313 310 309 310 317 314 306 299 293 289 283 281 277 276 273 272 272 271 268 272 267 263 261 261 261
202 223 222 232 243 259 268 260 263 259 275 286 290 289 301 307 312 317 319 319 312 308 314 317 318 316 319 319 319 320 321 323 324 330 341 344 342 344 351 355 350 355 1 7 355 342 339 333 329 329 327 322 323 324 320 315 315 314 315 310 308 309 308 307 309 305 305 298 295 290 289 286 282 277 272 271 271 270 269 267 268 269 269 269 272
199 203 214 220 237 251 248 249 252 259 256 264 263 279 278 280 289 295 311 322 326 314 304 316 316 319 319 321 324 325 328 328 329 341 349 347 346 350 356 349 348 360 6 352 347 337 333 327 327 322 318 315 312 313 312 311 311 308 306 304 302 302 303 306 309 303 299 301 296 294 297 294 289 286 281 276 270 267 268 265 266 270 270 272 281
196 215 221 223 219 239 241 251 248 257 259 258 262 268 273 272 280 292 301 302 305 309 312 319 314 317 317 319 324 326 330 331 336 350 352 351 351 355 353 347 351 349 357 344 337 324 326 326 322 320 318 316 312 310 308 308 307 307 306 307 304 305 307 307 300 302 301 300 302 299 301 305 302 293 283 277 274 270 267 266 267 266 270 273 273
196 203 216 227 232 236 244 239 246 245 249 260 249 249 253 269 284 283 283 282 289 296 298 302 297 308 309 316 324 327 329 330 343 354 353 353 358 5 357 346 336 333 333 332 330 320 310 306 310 309 310 305 305 304 302 303 303 303 303 304 306 303 302 301 302 303 308 305 304 311 314 310 309 307 298 285 274 270 268 265 263 260 260 264 270
193 211 214 219 215 232 241 237 240 240 255 258 264 286 282 272 274 275 276 280 286 280 288 303 315 304 301 283 306 319 319 327 348 353 352 351 356 4 328 320 321 325 329 330 328 325 321 311 305 301 302 302 301 299 299 298 299 300 301 302 296 298 296 296 306 311 311 307 307 309 311 308 307 306 307 303 294 280 273 269 267 265 264 265 270
193 205 217 217 230 235 236 236 234 246 250 268 272 267 273 273 266 266 276 281 280 291 302 304 307 308 312 312 324 317 305 327 347 348 349 350 349 351 346 332 324 320 316 316 318 315 313 310 308 305 304 302 299 302 300 297 298 298 299 299 301 298 307 309 308 306 305 303 304 307 307 306 305 305 306 305 304 301 290 280 272 267 265 264 266
204 221 226 237 240 219 215 228 238 244 261 258 263 265 272 273 275 278 274 272 279 287 284 292 295 300 300 306 315 300 308 343 351 344 336 331 324 320 317 319 316 316 310 308 308 312 309 312 313 310 305 306 303 302 301 299 300 300 300 301 304 305 311 311 309 305 306 306 306 305 306 305 306 305 306 306 305 305 304 298 286 272 264 264 260
200 216 237 244 246 263 263 263 262 261 260 267 263 256 265 269 273 275 274 276 282 283 283 289 292 290 300 310 296 307 332 339 337 325 320 319 322 320 316 319 326 322 321 320 319 317 316 311 311 311 310 309 307 305 304 304 304 302 302 304 309 314 315 313 308 310 309 310 309 310 310 310 309 308 306 304 305 306 308 307 302 286 270 259 257
200 208 208 235 242 246 261 263 252 253 249 249 253 262 262 267 265 265 269 272 278 279 284 280 277 285 290 300 313 324 350 341 320 312 305 310 312 316 322 324 325 323 322 319 317 316 312 311 311 311 309 307 307 308 308 309 309 309 309 310 310 312 314 314 313 311 312 313 313 314 314 313 311 311 310 309 310 310 306 306 309 309 294 271 258
193 201 220 226 244 251 247 250 247 255 254 260 266 261 262 265 263 263 267 273 273 278 283 282 278 282 294 309 315 329 344 333 314 310 313 313 315 318 320 319 314 310 312 314 316 316 315 313 311 311 311 311 312 312 313 313 316 317 315 314 314 316 321 321 320 318 318 317 318 315 315 313 313 313 311 311 312 312 310 310 314 312 311 308 296
189 205 211 222 219 221 231 240 241 238 253 248 252 256 261 259 261 267 273 271 271 276 277 285 294 296 299 307 318 326 333 315 310 313 308 311 312 315 314 312 312 307 304 300 302 301 305 304 305 307 308 308 309 311 314 314 315 319 319 317 316 319 323 325 324 323 322 320 318 316 314 315 315 312 312 313 314 313 311 316 321 325 321 317 313
194 204 209 216 222 229 234 233 242 243 244 249 255 254 255 261 267 270 267 270 270 267 267 274 283 297 300 308 314 316 304 308 308 306 307 310 311 310 310 308 309 309 308 305 301 303 304 304 303 303 301 302 304 305 303 304 309 314 322 321 318 319 325 330 329 327 325 322 318 319 320 320 319 320 318 319 322 323 324 327 329 332 333 335 337
192 200 211 222 229 231 246 237 238 246 252 260 265 264 263 262 264 262 262 267 269 270 269 269 275 281 291 295 301 302 302 302 304 306 306 305 305 304 304 306 307 308 308 306 306 308 305 306 305 307 308 308 308 308 307 307 308 311 319 322 320 323 332 335 332 326 322 318 313 318 321 323 325 326 326 327 328 327 327 331 330 334 342 344 350
195 202 210 218 227 236 241 239 235 238 245 247 254 264 258 252 253 256 262 261 262 267 269 268 269 271 274 283 287 290 291 295 292 292 295 298 296 297 297 299 302 302 301 301 305 306 304 305 309 311 311 311 313 312 312 312 312 313 320 325 324 325 329 332 331 329 327 327 325 321 320 322 326 326 331 332 329 332 329 333 336 340 337 345 351
197 200 213 217 230 237 241 240 234 238 242 246 246 249 257 254 251 254 254 258 264 265 268 274 275 275 273 275 280 284 285 289 290 296 293 292 293 293 297 299 302 303 303 303 301 301 304 304 306 306 308 308 310 311 312 315 316 314 322 329 326 332 337 340 337 333 327 328 327 324 327 327 328 330 334 337 339 340 340 341 343 344 343 351 359
200 203 213 222 226 240 248 241 250 253 248 248 249 253 256 260 262 259 259 260 263 266 269 270 268 269 276 278 276 278 283 284 286 284 289 288 290 291 295 298 300 302 305 305 306 304 303 305 305 307 307 309 312 313 313 314 317 317 320 331 331 333 337 342 341 338 334 333 330 332 332 330 330 333 338 342 345 347 351 351 351 355 360 4 11
194 202 217 223 229 234 240 241 240 244 243 246 253 261 262 268 266 264 262 263 263 262 261 271 279 277 271 272 278 281 283 286 287 288 286 285 288 290 292 294 297 300 302 303 305 308 307 306 305 304 304 306 307 307 310 313 316 318 318 326 331 333 338 348 348 343 344 343 339 340 340 342 339 338 342 347 346 348 358 359 1 2 7 12 16
202 206 212 221 230 237 236 235 240 246 249 247 249 258 259 260 265 265 266 266 270 270 268 265 268 272 275 282 285 285 287 288 287 289 288 289 287 289 292 295 296 297 300 300 302 303 306 304 305 304 305 305 305 306 308 310 311 312 316 319 327 334 340 348 350 349 355 350 348 341 342 343 346 345 345 347 347 349 357 1 4 10 13 17 18
209 212 216 221 226 233 232 234 242 242 243 246 242 248 257 255 256 260 265 266 269 274 275 269 267 269 268 265 270 279 282 282 279 281 284 286 289 293 294 296 298 300 299 297 299 302 302 304 304 305 306 303 305 305 306 306 307 307 308 315 328 339 342 347 352 356 356 358 350 350 351 350 351 354 352 350 355 355 358 360 6 10 12 17 17